Pickens County Airport, SC

9:23 PM EDT on July 26, 2017 (GMT -0400)
Pickens County

Weather History for KLQK - August, 2014

Change the Weather History Date:

Thursday, August 28, 2014

  Actual Average Record
Temperature  
Mean Temperature 75 °F -  
Max Temperature 92 °F 87 °F 92 °F (2014)
Min Temperature 58 °F 65 °F 58 °F (2014)
Cooling Degree Days 10    
Growing Degree Days 25 (Base 50)    
Moisture  
Dew Point 83 °F    
Average Humidity 89    
Maximum Humidity 100    
Minimum Humidity 82    
Precipitation  
Precipitation 0.00 in - - ()
Sea Level Pressure  
Sea Level Pressure 30.04 in    
Wind  
Wind Speed 1 mph (SW)    
Max Wind Speed 6 mph    
Max Gust Speed -    
Visibility 10 miles    
Events      
Averages and records for this station are not official NWS values.
T = Trace of Precipitation, MM = Missing Value Source: NWS Daily Summary

Daily Weather History Graph

Daily Weather History Graph

Search for Another Location

Airport or City:

Trip Planner

Search our weather history database for the weather conditions in past years. The results will help you decide how hot, cold, wet, or windy it might be!

Date:

Astronomy

Aug. 28, 2014 Rise Set
Actual Time 7:00 AM EDT 8:02 PM EDT
Civil Twilight 6:34 AM EDT 8:28 PM EDT
Nautical Twilight 6:03 AM EDT 8:59 PM EDT
Astronomical Twilight 5:32 AM EDT 9:31 PM EDT
Moon 9:43 AM EDT (8/28) 9:35 PM EDT (8/28)
Length of Visible Light 13h 53m
Length of Day
13h 01m
Waxing Crescent, 8% of the Moon is Illuminated
Aug 28
Waxing Crescent
Sep 2
First Quarter
Sep 8
Full
Sep 15
Last Quarter
Sep 24
New

Hourly Weather History & Observations

Time (EDT) Temp. Heat Index Dew Point Humidity Pressure Visibility Wind Dir Wind Speed Gust Speed Precip Events Conditions
12:15 AM 64.6 °F - - N/A% 30.05 in 10.0 mi North - - N/A   Clear
12:35 AM 64.2 °F - - N/A% 30.06 in 10.0 mi Calm Calm - N/A   Clear
12:55 AM 63.9 °F - - N/A% 30.06 in 10.0 mi Calm Calm - N/A   Clear
1:15 AM 63.3 °F - - N/A% 30.05 in 10.0 mi Calm Calm - N/A   Clear
1:35 AM 62.6 °F - - N/A% 30.05 in 10.0 mi North - - N/A   Clear
1:55 AM 62.6 °F - - N/A% 30.05 in 10.0 mi North - - N/A   Clear
2:15 AM 62.6 °F - - N/A% 30.04 in 10.0 mi Calm Calm - N/A   Clear
2:35 AM 62.4 °F - - N/A% 30.04 in 10.0 mi Calm Calm - N/A   Clear
2:55 AM 61.9 °F - - N/A% 30.03 in 10.0 mi Calm Calm - N/A   Clear
3:15 AM 61.5 °F - - N/A% 30.03 in 10.0 mi Calm Calm - N/A   Clear
3:35 AM 61.3 °F - - N/A% 30.03 in 10.0 mi North - - N/A   Clear
3:55 AM 60.8 °F - - N/A% 30.03 in 10.0 mi North - - N/A   Clear
4:15 AM 60.3 °F - - N/A% 30.03 in 10.0 mi Calm Calm - N/A   Clear
4:35 AM 60.8 °F - - N/A% 30.04 in 10.0 mi Calm Calm - N/A   Clear
4:55 AM 60.4 °F - - N/A% 30.03 in 10.0 mi Calm Calm - N/A   Clear
5:15 AM 59.9 °F - - N/A% 30.03 in 10.0 mi Calm Calm - N/A   Clear
5:35 AM 60.4 °F - - N/A% 30.03 in 10.0 mi North - - N/A   Clear
5:55 AM 59.7 °F - - N/A% 30.04 in 10.0 mi Calm Calm - N/A   Clear
6:15 AM 59.7 °F - - N/A% 30.04 in 10.0 mi Calm Calm - N/A   Clear
6:35 AM 59.2 °F - - N/A% 30.04 in 10.0 mi Calm Calm - N/A   Clear
6:55 AM 59.4 °F - - N/A% 30.05 in 10.0 mi North - - N/A   Clear
7:15 AM 58.8 °F - - N/A% 30.05 in 10.0 mi Calm Calm - N/A   Clear
7:35 AM 59.0 °F - - N/A% 30.06 in 10.0 mi Calm Calm - N/A   Clear
7:55 AM 60.4 °F - - N/A% 30.06 in 10.0 mi Calm Calm - N/A   Clear
8:15 AM 62.4 °F - - N/A% 30.06 in 10.0 mi Calm Calm - N/A   Clear
8:35 AM 64.6 °F - - N/A% 30.06 in 10.0 mi North - - N/A   Clear
8:55 AM 67.1 °F - - N/A% 30.06 in 10.0 mi North - - N/A   Clear
9:15 AM 70.0 °F - - N/A% 30.07 in 10.0 mi North - - N/A   Clear
9:35 AM 73.0 °F - 73.6 °F 100% 30.07 in 10.0 mi North - - N/A   Clear
9:55 AM 75.4 °F - 75.4 °F 100% 30.07 in 10.0 mi Calm Calm - N/A   Clear
10:15 AM 77.5 °F - 77.7 °F 100% 30.07 in 10.0 mi North - - N/A   Clear
10:35 AM 79.5 °F - 79.5 °F 100% 30.08 in 10.0 mi Calm Calm - N/A   Clear
11:15 AM 83.8 °F 100.6 °F 82.8 °F 97% 30.07 in 10.0 mi Calm Calm - N/A   Clear
11:35 AM 85.1 °F 103.0 °F 82.6 °F 92% 30.07 in 10.0 mi Calm Calm - N/A   Clear
11:55 AM 85.8 °F 105.2 °F 82.8 °F 91% 30.07 in 10.0 mi Calm Calm - N/A   Clear
12:15 PM 86.5 °F 106.7 °F 83.1 °F 89% 30.07 in 10.0 mi Calm Calm - N/A   Clear
12:35 PM 87.6 °F 109.6 °F 83.3 °F 87% 30.06 in 10.0 mi Calm Calm - N/A   Clear
12:55 PM 88.2 °F 110.9 °F 83.5 °F 86% 30.06 in 10.0 mi Calm Calm - N/A   Clear
1:15 PM 89.2 °F 114.4 °F 84.4 °F 85% 30.06 in 10.0 mi Calm Calm - N/A   Clear
1:35 PM 89.8 °F 116.6 °F 84.6 °F 85% 30.05 in 10.0 mi South 3.5 mph - N/A   Clear
1:55 PM 89.8 °F 117.4 °F 84.9 °F 86% 30.05 in 10.0 mi WNW 3.5 mph - N/A   Clear
2:15 PM 90.1 °F 119.8 °F 85.6 °F 87% 30.03 in 10.0 mi South 4.6 mph - N/A   Clear
2:35 PM 91.2 °F 123.5 °F 86.5 °F 86% 30.03 in 10.0 mi SSW 5.8 mph - N/A   Clear
2:55 PM 90.9 °F 121.0 °F 85.6 °F 85% 30.02 in 10.0 mi SSW 4.6 mph - N/A   Clear
3:15 PM 91.2 °F 122.6 °F 86.0 °F 85% 30.01 in 10.0 mi North - - N/A   Clear
3:35 PM 91.6 °F 123.2 °F 86.2 °F 84% 30.01 in 10.0 mi North - - N/A   Clear
3:55 PM 91.2 °F 121.6 °F 85.8 °F 84% 30.01 in 10.0 mi North - - N/A   Clear
4:15 PM 92.1 °F 124.5 °F 86.2 °F 83% 30.01 in 10.0 mi North - - N/A   Clear
4:35 PM 91.9 °F 122.7 °F 85.8 °F 82% 30.00 in 10.0 mi North - - N/A   Clear
4:55 PM 91.8 °F 122.9 °F 85.8 °F 83% 30.00 in 10.0 mi SW 5.8 mph - N/A   Clear
5:15 PM 91.6 °F 122.2 °F 85.8 °F 83% 30.00 in 10.0 mi South 4.6 mph - N/A   Clear
5:35 PM 90.7 °F 119.4 °F 85.3 °F 84% 29.99 in 10.0 mi WSW 3.5 mph - N/A   Clear
5:55 PM 90.1 °F 118.0 °F 84.9 °F 85% 30.00 in 10.0 mi WSW 5.8 mph - N/A   Clear
6:15 PM 90.1 °F 118.0 °F 85.1 °F 85% 30.00 in 10.0 mi SSW 4.6 mph - N/A   Clear
6:35 PM 89.2 °F 115.2 °F 84.7 °F 86% 30.00 in 10.0 mi SSW 3.5 mph - N/A   Clear
6:55 PM 88.2 °F 113.2 °F 84.6 °F 89% 30.00 in 10.0 mi Calm Calm - N/A   Clear
7:15 PM 87.1 °F 110.2 °F 84.2 °F 91% 29.99 in 10.0 mi Calm Calm - N/A   Clear
7:35 PM 85.8 °F 108.8 °F 84.7 °F 97% 30.00 in 10.0 mi Calm Calm - N/A   Clear
7:55 PM 82.0 °F 94.4 °F 81.9 °F 99% 30.00 in 10.0 mi Calm Calm - N/A   Clear
8:15 PM 78.4 °F - 78.6 °F 100% 30.00 in 10.0 mi North - - N/A   Clear
8:35 PM 76.5 °F - - N/A% 30.01 in 10.0 mi North - - N/A   Clear
8:55 PM 74.3 °F - - N/A% 30.02 in 10.0 mi North - - N/A   Clear
9:15 PM 73.4 °F - - N/A% 30.03 in 10.0 mi North - - N/A   Clear
9:35 PM 72.5 °F - - N/A% 30.03 in 10.0 mi North - - N/A   Clear
9:55 PM 71.4 °F - - N/A% 30.04 in 10.0 mi North - - N/A   Clear
10:15 PM 71.1 °F - - N/A% 30.04 in 10.0 mi North - - N/A   Clear
10:35 PM 70.3 °F - - N/A% 30.04 in 10.0 mi North - - N/A   Clear
10:55 PM 69.6 °F - - N/A% 30.04 in 10.0 mi North - - N/A   Clear
11:15 PM 69.1 °F - - N/A% 30.04 in 10.0 mi North - - N/A   Clear
11:35 PM 68.4 °F - - N/A% 30.04 in 10.0 mi North - - N/A   Clear
11:55 PM 68.2 °F - - N/A% 30.04 in 10.0 mi North - - N/A   Clear